Weather History for Dubuque, IA

Change the Weather History Date:

Tuesday, November 6, 2012

  Actual Average Record
Temperature  
Mean Temperature 35 °F 42 °F  
Max Temperature 42 °F 50 °F 73 °F (1916)
Min Temperature 28 °F 33 °F 7 °F (1991)
Degree Days  
Heating Degree Days 30 23  
Month to date heating degree days 157 132  
Since 1 July heating degree days 906 781  
Cooling Degree Days 0 0  
Month to date cooling degree days 0 0  
Year to date cooling degree days 907 643  
Moisture  
Dew Point 35 °F    
Average Humidity 89    
Maximum Humidity 100    
Minimum Humidity 78    
Precipitation  
Precipitation 0.22 in 0.08 in 0.81 in (2000)
Month to date precipitation 0.22 0.50  
Year to date precipitation 20.76 32.60  
Snow  
Snow 0.40 in 0.00 in - ()
Month to date snowfall 0.4 0.1  
Since 1 July snowfall 0.4 0.1  
Since 1 September snowfall 0.4 0.1  
Snow Depth 0.00 in    
Sea Level Pressure  
Sea Level Pressure 29.91 in    
Wind  
Wind Speed 9 mph (SSW)    
Max Wind Speed 14 mph    
Max Gust Speed 31 mph    
Visibility 5 miles    
Events Fog , Rain , Snow    
T = Trace of Precipitation, MM = Missing Value Source: NWS Daily Summary

Daily Weather History Graph

Daily Weather History Graph

Search for Another Location

Airport:

Trip Planner

Search our weather history database for the weather conditions in past years. The results will help you decide how hot, cold, wet, or windy it might be!

Date:

Astronomy

Nov. 06, 2012 Rise Set
Actual Time 6:43 AM CST 4:49 PM CST
Civil Twilight 6:13 AM CST 5:18 PM CST
Nautical Twilight 5:39 AM CST 5:52 PM CST
Astronomical Twilight 5:07 AM CST 6:25 PM CST
Moon 11:30 PM CST (11/6) 12:34 PM CST (11/6)
Length of Visible Light 11h 05m
Length of Day
10h 06m
Waning Gibbous, 53% of the Moon is Illuminated
Nov 6
Waning Gibbous
Nov 6
Last Quarter
Nov 13
New
Nov 20
First Quarter
Nov 28
Full

Hourly Weather History & Observations

Time (CST) Temp. Windchill Dew Point Humidity Pressure Visibility Wind Dir Wind Speed Gust Speed Precip Events Conditions
12:53 AM 28.0 °F 22.8 °F 24.1 °F 85% 30.11 in 6.0 mi SSW 4.6 mph - N/A   Clear
1:53 AM 30.9 °F 25.2 °F 27.0 °F 85% 30.07 in 6.0 mi SSW 5.8 mph - N/A   Mostly Cloudy
2:53 AM 33.1 °F 24.4 °F 28.0 °F 82% 30.06 in 6.0 mi South 11.5 mph - N/A   Haze
3:53 AM 34.0 °F 26.6 °F 28.9 °F 82% 30.04 in 5.0 mi South 9.2 mph - N/A   Haze
4:53 AM 34.0 °F 26.6 °F 28.9 °F 82% 30.00 in 5.0 mi South 9.2 mph - N/A   Haze
5:42 AM 33.8 °F 27.0 °F 30.2 °F 87% 29.96 in 5.0 mi South 8.1 mph - N/A   Overcast
5:53 AM 33.8 °F 26.4 °F 30.2 °F 87% 29.96 in 5.0 mi South 9.2 mph - N/A   Overcast
6:53 AM 35.1 °F 27.4 °F 30.0 °F 82% 29.99 in 5.0 mi South 10.4 mph - N/A   Haze
7:53 AM 35.1 °F 27.9 °F 32.0 °F 89% 29.97 in 3.0 mi South 9.2 mph - N/A   Overcast
8:14 AM 35.6 °F 27.5 °F 32.0 °F 87% 29.93 in 2.5 mi South 11.5 mph - N/A   Overcast
8:36 AM 33.8 °F 24.3 °F 32.0 °F 93% 29.92 in 2.5 mi South 13.8 mph - 0.02 in Snow Light Snow
8:44 AM 33.8 °F 25.3 °F 32.0 °F 93% 29.92 in 1.2 mi South 11.5 mph - 0.02 in Snow Light Snow
8:53 AM 33.1 °F 24.9 °F 32.0 °F 96% 29.96 in 1.0 mi South 10.4 mph - 0.03 in Snow Light Snow
9:00 AM 33.8 °F 25.8 °F 32.0 °F 93% 29.92 in 0.8 mi South 10.4 mph - 0.01 in Snow Light Snow
9:34 AM 32.0 °F 24.2 °F 32.0 °F 100% 29.91 in 0.5 mi South 9.2 mph - 0.06 in Fog , Snow Snow
9:53 AM 32.0 °F 24.2 °F 32.0 °F 100% 29.95 in 0.5 mi South 9.2 mph - 0.07 in Fog , Snow Light Snow
10:38 AM 33.8 °F 25.3 °F 33.8 °F 100% 29.90 in 1.0 mi South 11.5 mph - 0.02 in Snow Light Snow
10:53 AM 34.0 °F 26.0 °F 33.1 °F 96% 29.93 in 1.5 mi South 10.4 mph - 0.02 in Rain Light Freezing Rain
11:22 AM 35.6 °F 26.6 °F 33.8 °F 93% 29.87 in 1.8 mi South 13.8 mph - 0.00 in   Overcast
11:30 AM 35.6 °F 27.5 °F 35.6 °F 100% 29.87 in 1.8 mi South 11.5 mph - 0.01 in Rain Light Freezing Rain
11:48 AM 35.6 °F 28.0 °F 35.6 °F 100% 29.86 in 2.0 mi South 10.4 mph - 0.02 in   Overcast
11:53 AM 37.0 °F 28.9 °F 36.0 °F 96% 29.89 in 2.5 mi South 12.7 mph - 0.02 in   Overcast
12:05 PM 37.4 °F 30.3 °F 35.6 °F 93% 29.85 in 3.0 mi South 10.4 mph - 0.02 in   Overcast
12:32 PM 37.4 °F 29.8 °F 35.6 °F 93% 29.84 in 3.0 mi South 11.5 mph - 0.03 in Rain Light Rain
12:53 PM 37.9 °F 30.9 °F 37.0 °F 97% 29.87 in 4.0 mi South 10.4 mph - 0.04 in Rain Light Rain
1:17 PM 37.4 °F 31.4 °F 37.4 °F 100% 29.83 in 2.0 mi South 8.1 mph - 0.00 in   Overcast
1:25 PM 37.4 °F 30.8 °F 37.4 °F 100% 29.82 in 1.5 mi South 9.2 mph - 0.00 in   Overcast
1:44 PM 39.2 °F 33.0 °F 37.4 °F 93% 29.82 in 1.5 mi South 9.2 mph - 0.00 in   Overcast
1:53 PM 39.0 °F 32.8 °F 37.9 °F 96% 29.85 in 1.5 mi South 9.2 mph - 0.00 in   Overcast
2:50 PM 39.2 °F 35.0 °F 39.2 °F 100% 29.82 in 2.0 mi SW 5.8 mph - 0.02 in   Overcast
2:53 PM 39.9 °F 34.5 °F 39.0 °F 97% 29.85 in 2.5 mi SSW 8.1 mph - 0.02 in   Overcast
3:03 PM 39.2 °F 34.2 °F 39.2 °F 100% 29.82 in 4.0 mi SW 6.9 mph - N/A   Overcast
3:36 PM 41.0 °F 37.1 °F 39.2 °F 93% 29.83 in 5.0 mi WSW 5.8 mph - N/A   Overcast
3:53 PM 41.0 °F 37.1 °F 39.9 °F 96% 29.86 in 6.0 mi WSW 5.8 mph - N/A   Overcast
4:53 PM 42.1 °F 37.7 °F 39.9 °F 92% 29.87 in 8.0 mi West 6.9 mph - N/A   Overcast
5:53 PM 41.0 °F 34.7 °F 37.0 °F 86% 29.88 in 10.0 mi NW 10.4 mph - N/A   Overcast
6:53 PM 39.9 °F 35.8 °F 36.0 °F 86% 29.90 in 10.0 mi WNW 5.8 mph - N/A   Overcast
7:01 PM 39.2 °F 34.2 °F 35.6 °F 87% 29.87 in 10.0 mi WNW 6.9 mph - N/A   Overcast
7:37 PM 39.2 °F 34.2 °F 35.6 °F 87% 29.87 in 10.0 mi WNW 6.9 mph - N/A   Overcast
7:53 PM 39.0 °F 34.0 °F 36.0 °F 89% 29.90 in 10.0 mi NW 6.9 mph - N/A   Overcast
8:53 PM 39.0 °F 33.4 °F 36.0 °F 89% 29.90 in 10.0 mi NW 8.1 mph - N/A   Overcast
9:53 PM 39.0 °F 33.4 °F 36.0 °F 89% 29.90 in 10.0 mi NW 8.1 mph - 0.00 in   Overcast
10:08 PM 39.2 °F 34.2 °F 35.6 °F 87% 29.87 in 9.0 mi NNW 6.9 mph 31.1 mph 0.00 in Rain Light Rain
10:53 PM 37.9 °F 31.5 °F 37.0 °F 97% 29.91 in 7.0 mi North 9.2 mph - 0.01 in   Overcast
11:04 PM 37.4 °F 31.4 °F 37.4 °F 100% 29.88 in 5.0 mi NNW 8.1 mph - N/A   Overcast
11:53 PM 37.9 °F 34.4 °F 37.0 °F 97% 29.91 in 10.0 mi North 4.6 mph - 0.01 in   Overcast